Regional Weather Roundup
Issued by NWS

Home | Current Version | Previous Version | Graphics & Text | Print | Product List | Glossary On
Versions: 1 2 3 4 5 6 7 8 9 10 11 12 13 14 15 16 17 18 19 20 21 22 23 24 25 26 27 28 29 30 31 32 33 34 35 36 37 38 39 40 41 42 43 44 45 46 47 48 49 50
000
ASUS43 KDTX 231601
RWRMI
MICHIGAN HOURLY REGIONAL WEATHER ROUNDUP
NATIONAL WEATHER SERVICE DETROIT/PONTIAC MI
1200 PM EDT WED MAY 23 2018

NOTE: "FAIR" INDICATES FEW OR NO CLOUDS BELOW 12,000 FEET WITH NO
SIGNIFICANT WEATHER AND/OR OBSTRUCTION TO VISIBILITY.

MIZ047>049-052>055-059>063-066>070-074>076-081>083-231700-
SOUTHEAST LOWER MICHIGAN

CITY           SKY/WX    TMP DP  RH WIND       PRES   REMARKS
ADRIAN         FAIR      72  53  51 VRB3      30.20R
ALMA           FAIR      73  51  46 CALM      30.19F
ANN ARBOR      FAIR      73  54  51 NW6       30.19R
BAD AXE        FAIR      71  51  50 N8        30.17S
CARO           FAIR      73  52  48 NW5       30.18R
DETROIT CITY   FAIR      74  52  46 N9        30.17S
DETROIT        PTSUNNY   75  54  47 NW6       30.18R
FLINT          FAIR      74  52  46 N7        30.19R
GROSSE ILE     FAIR      65  60  81 S9        30.18R
HILLSDALE      FAIR      72  54  53 W3        30.20S
HOWELL         FAIR      71  55  56 NW3       30.20S

CITY           SKY/WX    TMP DP  RH WIND       PRES   REMARKS
JACKSON        FAIR      72  55  55 VRB5      30.20S
LAMBERTVILLE   FAIR      74  54  48 NW5       30.18S
LANSING        FAIR      70  57  63 VRB3      30.21R
LAPEER         FAIR      71  48  43 N6        30.19R
MASON          FAIR      70  56  61 NW6       30.21R
MT. CLEMENS    MOSUNNY   73  57  56 N7        30.16F
PONTIAC        FAIR      72  53  51 VRB6      30.18R
PORT HOPE        N/A     66  53  63 NW5       30.16R
PORT HURON     FAIR      73  46  38 N8        30.16F
TRI CITIES     FAIR      74  54  49 N6        30.19R
MIDLAND        FAIR      74  52  44 W3        30.17S
TROY           FAIR      73  53  48 NW8       30.19R
SAGINAW HB     FAIR      73  52  46 CALM      30.18S
$$
MIZ043>046-050>051-056>058-064>065-071>073-077>080-231700-
SOUTHWEST LOWER MICHIGAN

CITY           SKY/WX    TMP DP  RH WIND       PRES   REMARKS
BATTLE CREEK   FAIR      72  55  55 NE5       30.21S
BENTON HARBOR  FAIR      66  56  70 VRB6      30.21S
BIG RAPIDS     FAIR      73  54  51 CALM      30.18S
COLDWATER      FAIR      70  55  58 CALM      30.21R
FREMONT        FAIR      69  61  75 CALM      30.20F
HOLLAND        FAIR      64  56  75 W3        30.22S
GRAND RAPIDS   PTSUNNY   71  54  54 CALM      30.20F
IONIA          FAIR      70  54  57 NW3       30.20S
KALAMAZOO      FAIR      72  54  53 CALM      30.20S
LUDINGTON      FAIR      61  56  84 W8        30.19S
MARSHALL       FAIR      73  51  45 E3        30.21R
MOUNT PLEASANT FAIR      74  52  44 CALM      30.18S
MUSKEGON       PTSUNNY   61  52  72 SW7       30.22S
SOUTH HAVEN    FAIR      63  55  73 W5        30.22S
$$
MIZ016>042-231700-
NORTHERN LOWER MICHIGAN

CITY           SKY/WX    TMP DP  RH WIND       PRES   REMARKS
ALPENA         FAIR      76  49  38 N8        30.16S
BEAVER ISLAND  FAIR      64  51  64 W5        30.18S
BELLAIRE       FAIR      74  57  54 S6        30.16F
CADILLAC       FAIR      75  55  50 W3        30.18S
CHARLEVOIX     FAIR      61  51  70 N8        30.20R
FRANKFORT      FOG       56  54  94 W6        30.19R VSB 3/4
GAYLORD        FAIR      74  40  29 CALM      30.17F
HARBOR SPRINGS FAIR      70  54  57 SW5       30.16F
HOUGHTON LAKE  FAIR      73  53  49 SW7       30.18F
MANISTEE       FAIR      65  58  78 W9        30.18R
OSCODA         FAIR      79  38  23 N6        30.15S
PELLSTON       FAIR      76  47  35 N9        30.16F
ROGERS CITY    FAIR      63  45  51 N8        30.18S
TRAVERSE CITY  FAIR      77  58  51 VRB5      30.14F
$$
MIZ007>008-015-231700-
EASTERN UPPER MICHIGAN

CITY           SKY/WX    TMP DP  RH WIND       PRES   REMARKS
KINROSS        FAIR      73  45  36 VRB3      30.15F
MACKINAC ISLAN FAIR      61  50  67 W6        30.16S
NEWBERRY       FAIR      75  34  22 SW7       30.15S
S. S. MARIE    FAIR      72  44  36 W6        30.14S
MUNISING         N/A     55  46  71 CALM      30.13F
$$
MIZ004>006-011>014-085-231700-
CENTRAL UPPER MICHIGAN

CITY           SKY/WX    TMP DP  RH WIND       PRES   REMARKS
MANISTIQUE     FAIR      60  49  67 S5        30.15S
ESCANABA       FAIR      66  51  58 SE8       30.16S
MENOMINEE      FAIR      68  53  58 SE7       30.17F
SAWYER-GWINN   SUNNY     77  32  19 CALM      30.15F
$$
MIZ001>003-009>011-084-231700-
WESTERN UPPER MICHIGAN

CITY           SKY/WX    TMP DP  RH WIND       PRES   REMARKS
IRON MOUNTAIN  FAIR      78  38  23 SE6       30.15F
HOUGHTON       FAIR      74  54  49 NW12      30.13F
COPPER HARBOR    N/A     51  42  71 E6        30.14R
IRONWOOD       FAIR      75  55  49 N3        30.15F
$$

ABBREVIATIONS USED IN REMARKS
   TC - TEMPERATURE IN CELSIUS
  WCI - WIND CHILL INDEX
   HX - HEAT INDEX
  VSB - VISIBILITY





USA.gov is the U.S. government's official web portal to all federal, state and local government web resources and services.